Location: Cointrin
(46.2167°N, 6.1167°E)
Time: 11:01:43
(UTC+00:00)

AO-85 - Pass Details

Date: 10 December 2023
Orbit: 516 x 753 km, 64.8° (Epoch: 04 January)

Event Time Altitude Azimuth Distance (km) Brightness Sun altitude
Rises 16:54:34 0° 331° (NNW) 2,833 ? -10.8°
Reaches altitude 10° 16:57:48 10° 357° (N) 1,980 ? -11.3°
Maximum altitude 17:00:12 14° 30° (NNE) 1,754 ? -11.7°
Enters shadow 17:01:01 14° 42° (NE) 1,796 ? -11.9°
